This is the latest recevied weather packets stored in our database for station/object WE0DX-1. If no packets are shown the sender has not sent any weather packets the latest 10 day(s).
| Time | Temp. | Humidity | Pressure | Rain* | Wind** | Luminosity | Snow |
|---|---|---|---|---|---|---|---|
| 1777757845 | 16.67° C | 32% | 1018.5 hPa | 0 mm | - | 56 W/m² | - |
| 1777757542 | 17.22° C | 31% | 1018.6 hPa | 0 mm | - | 143 W/m² | - |
| 1777757241 | 16.67° C | 30% | 1018.7 hPa | 0 mm | - | 144 W/m² | - |
| 1777756939 | 16.67° C | 32% | 1018.8 hPa | 0 mm | - | 240 W/m² | - |
| 1777756634 | 16.67° C | 30% | 1018.7 hPa | 0 mm | - | 266 W/m² | - |
| 1777756331 | 17.78° C | 30% | 1018.9 hPa | 0 mm | - | 342 W/m² | - |
| 1777756028 | 17.22° C | 30% | 1018.8 hPa | 0 mm | - | 464 W/m² | - |
| 1777755726 | 17.22° C | 30% | 1018.9 hPa | 0 mm | - | 369 W/m² | - |
| 1777755423 | 16.67° C | 30% | 1018.8 hPa | 0 mm | - | 565 W/m² | - |
| 1777755118 | 16.67° C | 29% | 1019 hPa | 0 mm | - | 576 W/m² | - |
| 1777754815 | 16.67° C | 29% | 1018.9 hPa | 0 mm | - | 609 W/m² | - |
| 1777754513 | 16.67° C | 29% | 1019.1 hPa | 0 mm | - | 615 W/m² | - |
| 1777754210 | 16.67° C | 29% | 1019.2 hPa | 0 mm | - | 597 W/m² | - |
| 1777753908 | 17.22° C | 30% | 1019.3 hPa | 0 mm | - | 597 W/m² | - |
| 1777753602 | 16.67° C | 31% | 1019.2 hPa | 0 mm | - | 615 W/m² | - |
| 1777753301 | 16.67° C | 32% | 1019.4 hPa | 0 mm | - | 613 W/m² | - |
| 1777752997 | 16.67° C | 32% | 1019.4 hPa | 0 mm | - | 607 W/m² | - |
| 1777752694 | 16.67° C | 31% | 1019.4 hPa | 0 mm | - | 630 W/m² | - |
| 1777752389 | 17.22° C | 32% | 1019.5 hPa | 0 mm | - | 613 W/m² | - |
| 1777752087 | 17.22° C | 32% | 1019.5 hPa | 0 mm | - | 619 W/m² | - |
| 1777751785 | 17.22° C | 34% | 1019.3 hPa | 0 mm | - | 626 W/m² | - |
| 1777751480 | 17.22° C | 32% | 1019.5 hPa | 0 mm | - | 642 W/m² | - |
| 1777751178 | 16.67° C | 32% | 1019.5 hPa | 0 mm | - | 626 W/m² | - |
| 1777750874 | 16.67° C | 31% | 1019.6 hPa | 0 mm | - | 642 W/m² | - |
| 1777750571 | 16.11° C | 33% | 1019.9 hPa | 0 mm | - | 626 W/m² | - |
* Rain latest hour (hover to see other rain measurements)
** Current wind speed in m/s (hover to see current wind gust speed)